Champaign, IL

5:59 PM CDT on May 24, 2017 (GMT -0500)
Univ Of Illinois-Willard

Weather History for KCMI - December, 2013

Change the Weather History Date:

Sunday, December 8, 2013

  Actual Average Record
Temperature  
Mean Temperature 23 °F 31 °F  
Max Temperature 28 °F 39 °F 52 °F (2015)
Min Temperature 18 °F 23 °F -1 °F (2010)
Degree Days  
Heating Degree Days 42 34  
Month to date heating degree days 257 260  
Since 1 July heating degree days 1451 1424  
Cooling Degree Days 0 0  
Month to date cooling degree days 0 0  
Year to date cooling degree days 1067 945  
Moisture  
Dew Point 21 °F    
Average Humidity 84    
Maximum Humidity 100    
Minimum Humidity 67    
Precipitation  
Precipitation 0.02 in 0.08 in 0.24 in (2005)
Month to date precipitation 0.04 0.69  
Year to date precipitation 29.93 37.89  
Sea Level Pressure  
Sea Level Pressure 30.15 in    
Wind  
Wind Speed 13 mph (SE)    
Max Wind Speed 21 mph    
Max Gust Speed 24 mph    
Visibility 4 miles    
Events Rain , Snow    
T = Trace of Precipitation, MM = Missing Value Source: NWS Daily Summary

Daily Weather History Graph

Daily Weather History Graph

Search for Another Location

Airport or City:

Trip Planner

Search our weather history database for the weather conditions in past years. The results will help you decide how hot, cold, wet, or windy it might be!

Date:

Astronomy

Dec. 08, 2013 Rise Set
Actual Time 7:02 AM CST 4:27 PM CST
Civil Twilight 6:32 AM CST 4:57 PM CST
Nautical Twilight 5:58 AM CST 5:31 PM CST
Astronomical Twilight 5:25 AM CST 6:04 PM CST
Moon 11:23 AM CST (12/8) 11:16 PM CST (12/8)
Length of Visible Light 10h 25m
Length of Day
9h 24m
Waxing Crescent, 40% of the Moon is Illuminated
Dec 8
Waxing Crescent
Dec 9
First Quarter
Dec 17
Full
Dec 25
Last Quarter
Jan 1
New

Hourly Weather History & Observations

Time (CST) Temp. Windchill Dew Point Humidity Pressure Visibility Wind Dir Wind Speed Gust Speed Precip Events Conditions
12:53 AM 19.0 °F 6.8 °F 10.0 °F 68% 30.49 in 10.0 mi ENE 11.5 mph - N/A   Clear
1:53 AM 19.0 °F 8.2 °F 10.9 °F 71% 30.50 in 10.0 mi ENE 9.2 mph - N/A   Clear
2:53 AM 19.0 °F 6.1 °F 12.0 °F 74% 30.47 in 10.0 mi ENE 12.7 mph - N/A   Mostly Cloudy
3:53 AM 19.0 °F 5.0 °F 12.0 °F 74% 30.42 in 10.0 mi NE 15.0 mph - N/A   Overcast
4:53 AM 19.9 °F 7.3 °F 12.9 °F 74% 30.43 in 10.0 mi ENE 12.7 mph - N/A   Overcast
5:38 AM 19.4 °F 6.6 °F 14.0 °F 80% 30.36 in 2.5 mi ENE 12.7 mph - 0.00 in Snow Light Snow
5:53 AM 19.9 °F 8.6 °F 15.1 °F 81% 30.39 in 2.5 mi ENE 10.4 mph - 0.00 in Snow Light Snow
6:53 AM 19.9 °F 7.9 °F 16.0 °F 85% 30.35 in 2.0 mi NE 11.5 mph - 0.00 in Snow Light Snow
7:23 AM 19.4 °F 6.6 °F 15.8 °F 86% 30.31 in 2.0 mi NE 12.7 mph - 0.00 in Snow Light Snow
7:33 AM 19.4 °F 6.0 °F 17.6 °F 93% 30.31 in 1.0 mi NE 13.8 mph - 0.00 in Snow Light Snow
7:41 AM 19.4 °F 6.0 °F 17.6 °F 93% 30.30 in 0.8 mi NE 13.8 mph - 0.00 in Snow Light Snow
7:53 AM 19.9 °F 6.2 °F 17.1 °F 89% 30.33 in 0.8 mi NE 15.0 mph - 0.00 in Snow Light Snow
8:03 AM 19.4 °F 6.6 °F 17.6 °F 93% 30.29 in 1.0 mi NE 12.7 mph - 0.01 in Snow Light Snow
8:26 AM 21.2 °F 8.3 °F 17.6 °F 86% 30.27 in 3.0 mi ENE 13.8 mph - 0.01 in Snow Light Snow
8:46 AM 21.2 °F 6.8 °F 17.6 °F 86% 30.27 in 2.5 mi ENE 17.3 mph - 0.01 in Snow Light Snow
8:53 AM 21.0 °F 6.6 °F 18.0 °F 88% 30.31 in 3.0 mi ENE 17.3 mph - 0.01 in Snow Light Snow
9:53 AM 23.0 °F 9.2 °F 19.0 °F 85% 30.29 in 10.0 mi ENE 17.3 mph - 0.00 in   Overcast
10:53 AM 25.0 °F 12.6 °F 19.9 °F 81% 30.25 in 10.0 mi East 15.0 mph - N/A   Mostly Cloudy
11:30 AM 26.6 °F 14.7 °F 19.4 °F 74% 30.19 in 10.0 mi East 15.0 mph - N/A   Overcast
11:53 AM 26.1 °F 14.0 °F 19.9 °F 78% 30.20 in 10.0 mi East 15.0 mph - N/A   Overcast
12:53 PM 27.0 °F 15.2 °F 19.9 °F 75% 30.16 in 10.0 mi East 15.0 mph - N/A   Overcast
1:53 PM 27.0 °F 14.7 °F 21.0 °F 78% 30.10 in 10.0 mi ESE 16.1 mph - N/A   Overcast
2:02 PM 26.6 °F 14.3 °F 21.2 °F 80% 30.06 in 9.0 mi ESE 16.1 mph - N/A   Overcast
2:53 PM 26.1 °F 14.0 °F 21.9 °F 84% 30.07 in 2.5 mi ESE 15.0 mph - 0.00 in Snow Light Snow
3:01 PM 26.6 °F 15.2 °F 23.0 °F 86% 30.03 in 1.5 mi ESE 13.8 mph - 0.00 in Snow Light Snow
3:37 PM 26.6 °F 16.2 °F 24.8 °F 93% 30.02 in 1.2 mi ESE 11.5 mph - 0.00 in   Overcast
3:46 PM 26.6 °F 16.8 °F 24.8 °F 93% 30.03 in 1.2 mi ESE 10.4 mph - 0.00 in Rain Light Freezing Rain
3:53 PM 26.1 °F 15.6 °F 24.1 °F 92% 30.06 in 1.2 mi ESE 11.5 mph - 0.00 in Rain Light Freezing Rain
4:53 PM 27.0 °F 16.7 °F 25.0 °F 92% 30.06 in 1.2 mi SE 11.5 mph - 0.00 in Rain Light Freezing Rain
5:20 PM 26.6 °F 15.7 °F 24.8 °F 93% 30.01 in 2.0 mi SE 12.7 mph - 0.00 in Rain Light Freezing Rain
5:53 PM 26.1 °F 16.2 °F 25.0 °F 96% 30.04 in 2.0 mi SE 10.4 mph - 0.00 in Rain Light Freezing Rain
6:53 PM 27.0 °F 18.0 °F 26.1 °F 96% 30.04 in 2.0 mi South 9.2 mph - 0.00 in Rain Light Freezing Rain
7:14 PM 26.6 °F 15.7 °F 26.6 °F 100% 30.01 in 3.0 mi South 12.7 mph - 0.01 in Snow Light Snow
7:29 PM 26.6 °F 15.2 °F 26.6 °F 100% 30.02 in 2.5 mi South 13.8 mph - 0.01 in Rain Light Freezing Rain
7:34 PM 26.6 °F 16.2 °F 26.6 °F 100% 30.02 in 1.8 mi SSW 11.5 mph - 0.01 in Snow Light Snow
7:46 PM 26.6 °F 16.2 °F 26.6 °F 100% 30.01 in 2.0 mi SSW 11.5 mph - 0.01 in Snow Light Snow
7:53 PM 27.0 °F 16.1 °F 26.1 °F 96% 30.04 in 2.0 mi SSW 12.7 mph - 0.01 in Snow Light Snow
8:53 PM 27.0 °F 15.6 °F 25.0 °F 92% 30.04 in 2.0 mi SSW 13.8 mph - 0.00 in Snow Light Snow
9:08 PM 26.6 °F 16.2 °F 24.8 °F 93% 30.00 in 5.0 mi SW 11.5 mph - 0.00 in Snow Light Snow
9:39 PM 26.6 °F 15.7 °F 24.8 °F 93% 30.00 in 2.5 mi SW 12.7 mph - 0.00 in Snow Light Snow
9:46 PM 26.6 °F 15.7 °F 24.8 °F 93% 30.00 in 3.0 mi SW 12.7 mph - 0.00 in Snow Light Snow
9:50 PM 26.6 °F 15.7 °F 24.8 °F 93% 30.00 in 2.5 mi SW 12.7 mph - 0.00 in Snow Light Snow
9:53 PM 26.1 °F 15.6 °F 24.1 °F 92% 30.04 in 2.0 mi SW 11.5 mph - 0.00 in Snow Light Snow
10:04 PM 26.6 °F 15.7 °F 24.8 °F 93% 30.00 in 3.0 mi SW 12.7 mph - 0.00 in Snow Light Snow
10:10 PM 26.6 °F 15.2 °F 24.8 °F 93% 30.00 in 2.0 mi SW 13.8 mph - 0.00 in Snow Light Snow
10:50 PM 26.6 °F 15.7 °F 24.8 °F 93% 30.00 in 4.0 mi WSW 12.7 mph - 0.00 in Snow Light Snow
10:53 PM 26.1 °F 15.6 °F 24.1 °F 92% 30.03 in 4.0 mi WSW 11.5 mph - 0.00 in Snow Light Snow
11:03 PM 26.6 °F 13.8 °F 24.8 °F 93% 30.00 in 5.0 mi WSW 17.3 mph - 0.00 in   Mostly Cloudy
11:10 PM 26.6 °F 14.7 °F 24.8 °F 93% 30.00 in 6.0 mi WSW 15.0 mph - 0.00 in Snow Light Snow
11:21 PM 26.6 °F 15.2 °F 24.8 °F 93% 30.01 in 6.0 mi WSW 13.8 mph - 0.00 in Snow Light Snow
11:28 PM 26.6 °F 15.2 °F 24.8 °F 93% 30.01 in 6.0 mi WSW 13.8 mph - 0.00 in   Overcast
11:43 PM 26.6 °F 15.2 °F 23.0 °F 86% 30.01 in 6.0 mi WSW 13.8 mph - 0.00 in   Overcast
11:53 PM 26.1 °F 15.0 °F 23.0 °F 88% 30.04 in 7.0 mi WSW 12.7 mph - 0.00 in   Overcast